Showing default

RELAY 2, 737

Orbit data source: Space-Track

RELAY 2, 737 is a payload satellite owned by GSFC (US) that was launched on Tue, 21 Jan 1964 UTC via a THOR DELTA B launch vehicle from the Air Force Eastern Test Range (AFETR). Payload-class satellites include a variety of spacecraft equipped with specific instruments for various scientific and technological missions. These include communications satellites like Starlink; space stations such as the ISS; scientific satellites like the Hubble; Earth observation satellites from companies like Planet Labs, Umbra, and HawkEye 360; GPS; miniature CubeSats for education and research; and military/defense satellites.

Loading next visibility...
Identifier
737, 1964-003A
Orbit
Active
Country
Flag of USUS
Related business
Manufacturer
RCA/East Windsor
Mission
Spacecraft
Bus & Motor
RELAY, Unknown motor
Mass
83 kg wet, 83 kg dry
Launch date (UTC)
1964-01-21 (62 years ago)
Launch vehicle
THOR DELTA B
Launch site
Air Force Eastern Test Range (AFETR)
Object type
Payload
Rocket body
Debris
Shape & HBR
Unknown
Radar Cross Section
Medium (>0.1 m² and <1 m²)

Expand to show TLE details & history
Last TLE update: 1 day ago

TLE from 1 day ago
0 RELAY 2
1 00737U 64003A   25292.99722601 -.00000024  00000-0  00000-0 0  9993
2 00737  46.4510 256.0381 2598187 111.8568 277.6861  7.39533951668321
Epoch: 2025-10-19T23:56Z
TLE epoch observation values (Epoch: 2025-10-19T23:56:00.327Z)
Latitude
0.00003°
Longitude
-131.6691°
Altitude
5,107.169 km
Speed
5.797 km/s
True Right ascension
17h 04m 09s
True Declination
0° 00' 00"
Sunlit
Object was in daylight at epoch
Visualization orbit readout
Latitude
Unknown
Longitude
Unknown
Altitude
Unknown
Speed
Unknown
Apparent Right ascension
Unknown
Apparent Declination
Unknown
Sunlit
N/A
Visualization observer readout
Local Sidereal Time
22:14:49
Azimuth
Unknown
Elevation
Unknown
Doppler factor
Unknown
Orbital elements
Apogee altitude
7,642.716 km
Perigee altitude
1,859.535 km
Semi-major axis
11,129.263 km
Eccentricity
0.25982
Inclination
46.451°
RAAN
256.0381°
Arg. of periapsis
111.8568°
True anomaly
248.2049°
Mean anomaly
277.6861°
Eccentric anomaly
262.91331°
Mean motion
1.8486 °/min
Orbital period
194.74 mins
BSTAR
0
Loading maneuver chart data...
Computing Atmospheric mass density...
Loading historical data...
Loading historical data...
Loading historical data...
Loading historical data...
Loading historical data...
Loading historical data...
Loading historical data...
Other satellites on launch #3 in the year 1964 (1964-01-21 UTC)

Documentation

Showing up to 5 results
|